Back to Previous

Regional Weather Roundup

618 
ASUS44 KLZK 121205
RWRLZK

WEATHER ROUNDUP FOR ARKANSAS
NATIONAL WEATHER SERVICE LITTLE ROCK AR
600 AM CST FRI FEB 12 2016

NOTE: "FAIR" INDICATES FEW OR NO CLOUDS BELOW 12,000 FEET WITH NO
SIGNIFICANT WEATHER AND/OR OBSTRUCTIONS TO VISIBILITY.

ARZ001-003-010-029-121300-
NORTHWEST ARKANSAS
  
CITY           SKY/WX    TMP DP  RH WIND       PRES   REMARKS
FAYETTEVILLE   CLEAR     27  24  89 S6        30.21R WCI  20          
6HR MIN TEMP:  25; 6HR MAX TEMP:  32;                                

FORT SMITH     CLEAR     33  24  69 CALM      30.24R                  
6HR MIN TEMP:  32; 6HR MAX TEMP:  41;                                

HARRISON       CLEAR     39  26  59 NW6       30.17R                  
6HR MIN TEMP:  29; 6HR MAX TEMP:  39;                                

BENTONVILLE    CLEAR     30  23  74 CALM      30.21R                  
6HR MIN TEMP:  28; 6HR MAX TEMP:  36;                                

ROGERS         CLEAR     34  25  69 SW7       30.20R WCI  28          
6HR MIN TEMP:  32; 6HR MAX TEMP:  37;                                

SILOAM SPGS    CLEAR     32  19  59 CALM      30.22R                  
6HR MIN TEMP:  30; 6HR MAX TEMP:  36;                                

HIGHFILL       CLEAR     29  25  85 SW6       30.20R WCI  23          
6HR MIN TEMP:  28; 6HR MAX TEMP:  38;                                

SPRINGDALE     CLEAR     34  25  69 CALM      30.22                   
$$

ARZ004-005-016-121300-
NORTH CENTRAL ARKANSAS
  
CITY           SKY/WX    TMP DP  RH WIND       PRES   REMARKS
BATESVILLE     CLEAR     28  21  74 CALM      30.21R                  
6HR MIN TEMP:  27; 6HR MAX TEMP:  36;                                

FLIPPIN        CLEAR     28  18  64 CALM      30.18R                  
6HR MIN TEMP:  28; 6HR MAX TEMP:  37;                                

MTN HOME       CLEAR     28  21  75 CALM      30.18R                  
6HR MIN TEMP:  27; 6HR MAX TEMP:  35;                                

$$

ARZ040-041-121300-
WEST CENTRAL ARKANSAS
  
CITY           SKY/WX    TMP DP  RH WIND       PRES   REMARKS
MENA           CLEAR     32  30  93 CALM      30.21R                  
MOUNT IDA      CLEAR     29  25  85 CALM      30.18R                  
6HR MIN TEMP:  28; 6HR MAX TEMP:  39;                                

$$

ARZ009-017-025-026-028-121300-
NORTHEAST ARKANSAS
  
CITY           SKY/WX    TMP DP  RH WIND       PRES   REMARKS
CORNING        FAIR      28  25  86 N5        30.22S WCI  23          
JONESBORO      PTCLDY    31  25  78 N3        30.21R                  
6HR MIN TEMP:  30; 6HR MAX TEMP:  35;                                

NEWPORT        CLEAR     27  24  88 N7        30.23R WCI  20          
6HR MIN TEMP:  26; 6HR MAX TEMP:  35;                                

WALNUT RIDGE   CLEAR     28  21  74 NE6       30.22S WCI  22          
6HR MIN TEMP:  28; 6HR MAX TEMP:  36;                                

BLYTHEVILLE    CLEAR     30  25  81 N5        30.20S WCI  25          
6HR MIN TEMP:  30; 6HR MAX TEMP:  37;                                

$$

ARZ022-023-033-042-044-121300-
CENTRAL ARKANSAS
  
CITY           SKY/WX    TMP DP  RH WIND       PRES   REMARKS
LITTLE ROCK    CLEAR     34  25  69 CALM      30.21S                  
6HR MIN TEMP:  32; 6HR MAX TEMP:  40;                                

N LITTLE ROCK    N/A     33  27  77 W6        30.21S WCI  28          
6HR MIN TEMP:  33; 6HR MAX TEMP:  39;                                

JACKSONVILLE   CLEAR     28  24  82 W1        30.19R                  
6HR MIN TEMP:  28; 6HR MAX TEMP:  39;                                

SEARCY         CLEAR     29  26  89 W3        30.22R                  
6HR MIN TEMP:  28; 6HR MAX TEMP:  37;                                

HOT SPRINGS    CLEAR     32  26  78 W5        30.21R WCI  27          
6HR MIN TEMP:  31; 6HR MAX TEMP:  41;                                

RUSSELLVILLE   CLEAR     28  24  85 CALM      30.22R                  
6HR MIN TEMP:  27; 6HR MAX TEMP:  38;                                

CLINTON        FAIR      25  23  93 CALM      30.22R                  
$$

ARZ036-121300-
EAST ARKANSAS
  
CITY           SKY/WX    TMP DP  RH WIND       PRES   REMARKS
WEST MEMPHIS   CLEAR     30  29  96 NW3       30.18R                  
6HR MIN TEMP:  29; 6HR MAX TEMP:  39;                                

$$

ARZ050-053-066-070-073-121300-
SOUTHWEST ARKANSAS
  
CITY           SKY/WX    TMP DP  RH WIND       PRES   REMARKS
ARKADELPHIA    FAIR      29  28  96 CALM      30.23R                  
6HR MIN TEMP:  29; 6HR MAX TEMP:  40;                                

CAMDEN         CLEAR     30  27  86 CALM      30.23R                  
TEXARKANA      CLEAR     36  27  69 NE6       30.23R                  
6HR MIN TEMP:  36; 6HR MAX TEMP:  44;                                

EL DORADO      CLEAR     33  28  81 N5        30.21R WCI  29          
6HR MIN TEMP:  33; 6HR MAX TEMP:  41;                                

DE QUEEN       CLEAR     32  29  88 CALM      30.21R                  
6HR MIN TEMP:  31; 6HR MAX TEMP:  43;                                

$$

ARZ056-057-069-121300-
SOUTHEAST ARKANSAS
  
CITY           SKY/WX    TMP DP  RH WIND       PRES   REMARKS
PINE BLUFF     CLEAR     33  27  78 NW3       30.22R                  
6HR MIN TEMP:  31; 6HR MAX TEMP:  38;                                

STUTTGART      CLEAR     30  25  80 NW6       30.20S WCI  24          
6HR MIN TEMP:  30; 6HR MAX TEMP:  37;                                

MONTICELLO     CLEAR     35  28  75 NW3       30.20R                  
6HR MIN TEMP:  33; 6HR MAX TEMP:  42;                                


$$


  


USA.gov is the U.S. government's official web portal to all federal, state and local government web resources and services.